Wind_Speed
29 27 26 25 27 28 28 25 24 24 22 17 13 12 11 14 14 14 14 14 13 14 17 19 19 17 19 19 20 21 22 21 22 24 25 27 28 27 27 28 30 33 39
29 28 28 27 27 28 29 27 26 24 23 21 15 14 15 14 15 15 17 17 18 20 21 20 20 22 23 21 23 24 23 24 24 24 24 25 26 26 26 27 29 31 33
29 29 28 29 28 29 30 29 27 25 23 22 20 19 19 19 19 21 21 20 22 23 24 23 23 26 24 25 27 26 28 28 29 29 30 30 29 28 27 28 30 31 32
30 31 31 30 29 29 30 31 29 27 25 23 22 22 22 22 22 23 24 23 22 22 23 23 24 26 28 30 30 29 30 33 34 34 34 32 32 33 33 33 33 34 35
33 33 32 31 30 31 32 32 30 28 26 24 24 25 25 26 26 24 25 25 22 23 24 26 25 25 25 27 29 30 31 34 36 37 37 37 36 35 38 39 41 42 41
34 34 33 32 31 32 33 33 30 29 28 26 26 27 27 27 27 27 26 27 27 25 26 27 27 28 30 32 31 32 31 31 35 39 41 41 42 42 43 43 44 44 46
36 34 34 34 32 33 34 34 32 30 29 27 29 30 28 27 24 25 24 25 26 25 28 30 31 33 35 37 38 39 39 39 38 39 40 42 44 45 46 47 48 47 48
37 35 35 34 34 34 33 34 31 30 30 30 32 31 28 25 26 26 24 24 25 27 28 29 31 34 36 37 39 41 44 44 44 45 45 46 47 49 50 50 49 48 49
40 35 35 35 36 35 32 32 32 30 30 31 32 29 26 23 19 20 23 22 24 25 26 27 28 29 31 35 39 42 44 45 46 48 50 51 54 52 52 53 53 53 54
42 36 37 37 36 35 33 33 32 32 30 31 29 25 25 20 16 16 19 17 16 18 19 22 25 28 32 36 38 41 43 46 48 50 52 54 56 57 56 57 57 56 56
45 39 39 38 35 34 33 33 32 31 29 28 25 22 20 8 10 12 12 10 10 14 19 25 27 30 35 39 43 43 41 44 48 52 55 56 57 59 58 59 61 61 62
44 42 43 40 36 36 34 31 30 28 26 22 15 7 4 12 9 2 5 8 12 16 20 25 28 31 36 43 45 48 46 45 46 48 52 54 58 59 59 59 61 63 64
48 46 45 43 38 36 35 30 28 24 19 13 12 9 7 8 1 4 6 10 13 19 22 29 32 35 39 47 49 52 50 45 43 45 47 49 52 54 56 58 59 60 62
52 48 48 45 39 38 36 31 27 22 16 15 11 16 13 6 3 3 5 10 16 19 25 30 35 41 44 49 54 55 54 45 43 40 40 40 42 44 48 50 53 57 60
48 50 51 47 40 37 36 33 27 23 19 17 13 10 11 9 6 5 7 12 17 20 26 33 38 42 46 50 55 58 58 50 44 39 36 37 37 39 41 45 47 51 56
45 46 49 48 42 37 35 32 25 25 26 22 15 11 13 9 10 10 12 15 20 22 28 33 40 44 47 49 53 58 61 54 50 44 39 38 36 37 38 40 42 45 49
49 47 52 49 43 37 37 29 26 27 32 28 22 14 14 13 14 14 17 20 26 28 31 35 41 43 48 49 52 58 62 60 53 48 44 41 40 40 40 40 41 42 43
51 51 54 51 45 42 38 32 28 29 35 33 26 21 17 18 18 18 20 24 29 33 34 36 40 42 48 51 52 58 63 63 56 52 47 44 43 42 42 42 46 47 47
54 55 54 50 47 44 40 36 29 28 33 34 34 28 25 18 21 23 25 29 32 37 35 37 38 40 48 52 53 56 62 64 61 56 51 45 44 43 44 45 47 46 46
56 60 56 53 48 46 42 41 33 29 34 32 31 26 24 22 23 22 28 32 35 39 36 36 39 40 48 53 52 55 58 61 60 57 55 54 49 44 42 44 43 45 45
59 62 57 54 48 44 46 46 35 32 35 38 37 30 22 22 26 27 27 33 34 37 39 35 38 41 49 51 52 54 58 61 61 58 56 54 51 47 45 48 47 45 43
56 60 53 48 43 42 46 44 38 33 36 38 36 37 26 22 27 31 28 34 36 41 45 36 36 41 47 49 52 53 58 60 62 60 57 56 54 49 46 46 48 48 44
52 51 54 48 43 43 44 41 37 35 37 35 37 36 30 21 26 27 31 34 35 40 37 36 38 41 46 49 51 53 59 60 59 60 59 55 58 53 50 48 48 47 46
61 55 54 48 44 39 38 37 36 35 34 36 35 34 28 23 26 24 31 35 34 38 35 36 38 42 43 49 49 54 57 60 61 61 61 58 59 55 52 50 48 48 47
61 58 59 51 41 42 37 37 35 36 37 36 35 32 30 30 27 29 33 34 34 35 37 36 38 40 44 48 51 55 58 60 62 62 61 59 59 56 51 52 51 48 49
62 60 59 55 48 41 36 42 39 39 37 35 37 31 29 29 28 31 36 35 36 46 40 36 40 42 44 48 50 54 57 58 61 64 62 58 60 57 53 52 51 48 49
Wind_Direction
277 284 287 290 291 292 294 297 300 306 313 316 322 318 303 304 305 307 304 305 307 307 305 306 305 303 301 299 298 296 292 286 284 280 283 282 280 278 279 279 276 272 268
272 278 280 283 284 286 289 292 292 296 307 310 307 301 300 295 294 304 283 288 291 295 295 291 294 294 294 294 292 293 293 296 294 296 296 297 295 290 287 285 285 282 278
266 273 276 277 281 282 285 286 289 292 297 306 301 296 294 289 285 290 291 291 290 289 291 292 291 289 289 286 286 285 281 283 283 285 289 287 282 279 279 279 278 277 278
265 270 274 276 280 280 282 283 287 289 292 300 297 293 293 287 281 280 285 288 290 292 294 294 291 290 292 292 291 287 282 280 278 279 281 283 280 273 270 270 272 272 272
261 268 271 275 278 280 281 282 287 289 289 294 295 296 296 293 286 282 284 283 285 291 294 296 300 303 304 301 301 295 291 288 285 283 280 279 278 275 271 272 270 271 271
260 265 269 272 275 277 279 280 284 286 284 288 295 298 301 299 295 289 287 288 285 289 295 296 295 296 296 298 296 296 292 293 288 285 283 282 282 280 278 276 274 273 272
256 261 266 270 272 273 277 281 281 279 279 286 297 299 299 299 293 289 293 292 289 292 294 296 295 294 296 296 293 292 290 286 284 282 279 276 276 277 276 275 275 275 275
253 257 260 265 272 273 276 280 278 278 279 291 298 296 296 295 290 284 285 291 292 292 294 293 294 298 301 301 299 299 297 292 286 282 278 275 274 272 271 272 272 273 273
249 252 257 261 268 274 274 277 279 281 281 293 295 292 293 291 293 285 286 288 289 299 306 309 312 315 320 317 312 307 303 299 295 292 286 282 274 271 270 271 271 271 271
249 249 254 258 267 273 273 277 281 281 282 292 290 289 288 289 278 282 284 294 308 312 330 349 339 335 338 339 327 314 307 295 288 286 285 282 282 279 277 274 272 272 273
246 248 253 259 268 270 272 274 278 277 287 287 285 284 280 301 292 294 304 307 349 355 1 358 359 340 338 337 340 334 313 303 295 286 281 279 281 281 279 277 276 275 272
240 244 247 254 265 266 267 273 272 276 283 280 273 217 254 310 301 341 14 19 11 6 360 2 355 350 346 343 346 340 324 312 304 297 291 288 283 283 281 279 278 276 276
246 244 247 254 261 263 265 268 264 272 267 254 209 209 286 298 191 62 45 26 9 5 359 1 357 353 350 349 351 347 334 321 314 306 298 293 291 288 286 285 280 278 279
244 244 246 251 256 260 265 261 260 254 249 224 220 240 275 268 237 27 16 7 360 357 356 356 356 352 350 350 351 349 345 334 328 316 311 305 302 300 297 294 291 285 284
240 242 244 246 254 259 263 256 252 239 227 217 243 243 261 250 256 317 335 351 347 349 347 350 352 351 352 352 352 352 351 344 339 331 325 323 315 308 302 299 295 291 288
241 236 243 247 251 256 256 249 244 235 224 229 229 250 272 250 262 285 305 328 327 334 335 344 346 351 350 352 352 354 354 349 346 340 332 328 324 320 314 307 303 300 295
237 234 244 247 248 250 249 236 242 233 226 229 240 244 267 264 270 279 294 304 315 323 327 337 341 347 347 350 352 352 355 355 349 346 340 333 328 324 321 318 315 312 309
237 236 240 243 247 246 248 237 240 244 232 232 244 246 255 274 272 280 291 301 312 315 317 325 335 344 347 347 349 351 355 357 352 348 342 335 327 321 318 315 313 312 310
236 234 238 243 243 247 247 246 241 241 237 231 242 248 255 272 275 283 292 297 305 310 311 320 334 342 346 344 347 351 354 355 352 349 346 339 333 329 323 321 320 318 317
236 232 235 243 239 246 244 248 244 242 235 238 236 248 251 264 274 290 304 302 301 310 310 322 337 340 344 342 344 351 352 355 355 349 347 344 340 336 332 329 328 325 322
239 234 233 239 241 245 248 249 251 242 237 238 241 250 256 260 275 284 299 308 307 312 323 329 335 339 341 340 341 345 348 353 355 354 350 346 343 340 336 333 330 329 328
224 227 233 234 242 246 248 249 249 244 244 245 242 249 256 259 277 288 302 306 314 314 319 331 333 340 337 338 338 342 345 349 354 353 349 348 345 341 340 335 335 337 337
226 228 232 234 237 240 248 249 244 240 243 245 244 249 251 263 277 281 303 310 311 311 316 327 330 336 334 336 336 338 343 345 351 353 349 345 345 340 340 338 340 340 339
224 229 229 231 231 230 238 242 240 240 238 240 244 247 251 267 273 284 302 306 312 311 314 321 325 332 334 334 335 337 339 343 349 350 350 344 343 340 339 341 340 342 342
225 227 228 230 228 226 236 234 238 240 236 245 247 249 266 274 274 281 294 298 311 314 316 315 321 331 329 332 334 334 335 340 344 349 348 342 343 340 340 342 342 342 341
220 228 232 233 228 228 237 236 238 242 244 247 251 257 269 276 278 287 292 298 300 313 313 310 321 328 326 329 331 331 331 337 341 345 347 342 341 339 339 340 342 340 340
Height
10876 10877 10878 10878 10877 10876 10877 10878 10878 10877 10877 10876 10875 10875 10874 10873 10872 10871 10870 10869 10868 10867 10867 10866 10865 10865 10863 10860 10859 10857 10855 10853 10850 10850 10848 10846 10845 10843 10840 10838 10837 10835 10834
10873 10875 10876 10876 10875 10874 10874 10875 10875 10875 10875 10875 10874 10873 10872 10872 10870 10869 10869 10867 10867 10866 10865 10864 10863 10862 10860 10858 10857 10855 10852 10850 10847 10846 10844 10842 10839 10838 10835 10833 10831 10829 10828
10869 10871 10872 10874 10873 10872 10871 10871 10872 10872 10873 10872 10871 10870 10870 10869 10868 10867 10866 10865 10863 10862 10861 10860 10859 10857 10856 10855 10853 10850 10849 10846 10843 10842 10840 10837 10835 10833 10830 10827 10825 10823 10822
10866 10867 10869 10870 10870 10870 10869 10868 10868 10869 10870 10870 10869 10867 10866 10866 10864 10863 10862 10861 10860 10858 10856 10855 10855 10853 10852 10850 10847 10846 10844 10840 10838 10836 10834 10832 10829 10826 10824 10821 10819 10817 10815
10861 10864 10865 10866 10866 10867 10866 10865 10866 10866 10866 10866 10865 10865 10863 10862 10860 10859 10858 10857 10856 10854 10853 10851 10851 10850 10849 10845 10842 10841 10839 10835 10831 10829 10827 10824 10822 10819 10817 10814 10812 10809 10807
10854 10858 10860 10861 10862 10863 10862 10862 10863 10862 10862 10862 10861 10861 10859 10858 10857 10855 10855 10854 10853 10851 10850 10848 10847 10845 10843 10839 10838 10834 10833 10830 10825 10821 10818 10816 10813 10810 10808 10805 10802 10801 10799
10848 10852 10855 10856 10857 10857 10858 10859 10859 10858 10857 10857 10857 10856 10855 10854 10853 10852 10851 10850 10849 10848 10846 10844 10843 10840 10839 10835 10831 10828 10826 10822 10818 10813 10809 10807 10804 10801 10798 10794 10793 10791 10789
10842 10845 10848 10851 10851 10852 10853 10855 10855 10854 10854 10853 10852 10852 10851 10850 10849 10848 10848 10847 10845 10843 10842 10840 10838 10836 10833 10830 10825 10821 10817 10814 10809 10805 10801 10797 10793 10790 10788 10785 10783 10781 10779
10835 10839 10841 10844 10845 10847 10848 10849 10850 10850 10850 10850 10848 10848 10846 10845 10845 10844 10844 10843 10841 10841 10840 10838 10836 10833 10830 10826 10820 10816 10810 10805 10800 10796 10793 10787 10781 10779 10776 10774 10772 10770 10767
10830 10833 10835 10838 10840 10842 10843 10844 10846 10846 10847 10846 10845 10844 10843 10843 10841 10840 10840 10839 10839 10839 10838 10837 10833 10829 10825 10821 10815 10808 10802 10796 10791 10785 10781 10775 10772 10769 10767 10765 10762 10759 10756
10823 10827 10830 10832 10835 10837 10837 10840 10842 10842 10843 10842 10841 10840 10840 10840 10839 10838 10838 10838 10837 10837 10836 10833 10830 10826 10822 10816 10810 10802 10793 10785 10779 10772 10767 10763 10759 10757 10754 10752 10749 10747 10743
10818 10822 10825 10827 10830 10832 10833 10836 10838 10839 10839 10838 10838 10838 10838 10837 10836 10836 10836 10836 10835 10835 10833 10830 10827 10822 10818 10811 10805 10793 10785 10777 10769 10761 10755 10751 10745 10744 10741 10739 10737 10734 10731
10815 10818 10820 10822 10825 10827 10829 10832 10833 10834 10834 10835 10837 10837 10836 10835 10834 10833 10834 10833 10832 10831 10829 10826 10822 10817 10810 10804 10797 10788 10778 10768 10759 10752 10746 10740 10735 10731 10730 10727 10723 10721 10718
10808 10812 10815 10817 10819 10822 10825 10827 10828 10829 10830 10831 10833 10833 10834 10833 10832 10831 10831 10831 10829 10826 10824 10822 10818 10811 10803 10796 10790 10781 10771 10761 10752 10744 10737 10731 10727 10723 10719 10716 10713 10711 10707
10801 10806 10808 10810 10813 10816 10820 10821 10823 10824 10826 10827 10828 10829 10830 10829 10830 10829 10828 10827 10826 10822 10819 10816 10812 10807 10797 10789 10784 10776 10764 10754 10745 10738 10731 10726 10721 10716 10712 10707 10703 10700 10697
10792 10800 10801 10805 10807 10811 10814 10816 10817 10819 10822 10823 10824 10825 10825 10827 10826 10825 10825 10823 10822 10818 10814 10810 10808 10803 10795 10788 10782 10774 10762 10750 10741 10733 10727 10721 10715 10710 10705 10700 10696 10691 10687
10780 10791 10793 10800 10802 10806 10807 10811 10811 10815 10816 10819 10819 10821 10822 10823 10822 10822 10821 10820 10817 10813 10809 10807 10803 10799 10793 10785 10778 10771 10760 10747 10738 10729 10722 10716 10710 10704 10698 10693 10688 10683 10678
10771 10781 10786 10792 10796 10801 10801 10803 10806 10809 10810 10813 10814 10816 10817 10818 10817 10817 10816 10814 10812 10810 10806 10803 10799 10794 10788 10781 10774 10766 10754 10744 10736 10727 10718 10710 10705 10699 10693 10687 10681 10675 10668
10760 10772 10778 10784 10789 10793 10797 10797 10802 10803 10805 10809 10810 10811 10812 10814 10813 10814 10813 10811 10809 10806 10801 10800 10795 10789 10783 10777 10770 10762 10752 10741 10729 10723 10717 10710 10700 10692 10685 10679 10671 10665 10659
10752 10764 10771 10776 10782 10785 10791 10790 10796 10798 10799 10803 10805 10807 10807 10808 10808 10808 10807 10806 10804 10801 10798 10795 10790 10784 10778 10772 10766 10759 10751 10743 10732 10721 10711 10700 10694 10686 10680 10674 10668 10657 10651
10746 10757 10763 10768 10775 10780 10784 10785 10790 10791 10795 10795 10800 10801 10803 10803 10803 10803 10803 10802 10799 10797 10793 10789 10783 10779 10774 10767 10762 10756 10748 10739 10730 10720 10711 10702 10692 10682 10672 10664 10661 10654 10645
10739 10748 10756 10761 10768 10773 10776 10779 10783 10784 10787 10790 10793 10795 10797 10799 10799 10798 10797 10796 10793 10792 10788 10784 10779 10774 10769 10764 10757 10752 10744 10735 10725 10715 10707 10698 10690 10681 10672 10663 10653 10644 10637
10733 10742 10747 10754 10760 10765 10768 10773 10775 10776 10780 10785 10787 10790 10791 10793 10795 10793 10790 10789 10788 10786 10782 10779 10774 10769 10764 10759 10753 10747 10739 10731 10721 10712 10704 10693 10684 10676 10667 10657 10650 10641 10632
10725 10730 10738 10745 10752 10759 10762 10765 10766 10771 10774 10778 10781 10784 10785 10787 10788 10788 10786 10784 10782 10780 10777 10773 10769 10763 10759 10755 10748 10741 10735 10727 10718 10707 10699 10690 10681 10671 10662 10652 10644 10637 10629
10715 10723 10730 10737 10745 10751 10755 10757 10761 10765 10767 10772 10775 10775 10779 10781 10781 10782 10780 10779 10777 10775 10770 10766 10763 10757 10754 10749 10743 10736 10728 10719 10713 10704 10694 10685 10677 10667 10656 10646 10639 10631 10623
10704 10713 10720 10730 10738 10744 10748 10749 10756 10757 10761 10765 10767 10769 10771 10773 10774 10775 10773 10772 10771 10768 10765 10760 10757 10752 10748 10744 10739 10732 10725 10716 10705 10699 10690 10680 10670 10661 10653 10643 10636 10627 10619